EW4337 Weather Reports


Display with metric or nautical units.
time (UTC)temp
F
wind
direction
speed
MPH
gust
MPH
rain 1hr
in
rain 24hr
in
rain mn
in
humidity
%
barometer
mb
20260504234705 50 356 3.0 9.0 0.00 0.00 0.00 88 1012.4
20260504233705 50 24 2.0 6.0 0.00 0.00 0.00 88 1012.5
20260504233204 50 4 2.0 6.0 0.00 0.00 0.00 88 1012.5
20260504232704 50 345 3.0 9.0 0.00 0.00 0.00 88 1012.6
20260504232204 50 340 3.0 9.0 0.00 0.00 0.00 88 1012.6
20260504231704 50 4 3.0 8.0 0.00 0.00 0.00 88 1012.6
20260504231204 50 13 4.0 9.0 0.00 0.00 0.00 88 1012.7
20260504230704 50 339 3.0 7.0 0.00 0.00 0.00 88 1012.7
20260504230204 50 333 4.0 8.0 0.00 0.00 0.00 88 1012.7
20260504224704 50 358 2.0 6.0 0.00 0.00 0.00 87 1013.0
20260504224204 50 351 4.0 9.0 0.00 0.00 0.00 87 1013.0
20260504223704 50 16 3.0 8.0 0.00 0.00 0.00 87 1013.1
20260504223204 50 7 3.0 8.0 0.00 0.00 0.00 87 1013.1
20260504222704 50 349 4.0 9.0 0.00 0.00 0.00 87 1013.0
20260504222204 50 14 2.0 9.0 0.00 0.00 0.00 87 1013.0
20260504221704 50 340 3.0 8.0 0.00 0.00 0.00 87 1013.0
20260504221204 50 4 3.0 9.0 0.00 0.00 0.00 87 1013.1
20260504220204 50 325 5.0 8.0 0.00 0.00 0.00 87 1013.2
20260504215703 50 316 4.0 12.0 0.00 0.00 0.00 87 1013.2
20260504214704 50 11 3.0 9.0 0.00 0.00 0.00 87 1013.3
20260504213703 50 355 3.0 8.0 0.00 0.00 0.00 87 1013.3
20260504213203 50 0 5.0 9.0 0.00 0.00 0.00 88 1013.3
20260504212703 50 348 2.0 6.0 0.00 0.00 0.00 88 1013.4
20260504211704 51 346 2.0 8.0 0.00 0.00 0.00 88 1013.5
20260504210203 51 341 3.0 5.0 0.00 0.00 0.00 88 1013.3
20260504205703 51 318 3.0 8.0 0.00 0.00 0.00 88 1013.3
20260504205204 51 334 3.0 8.0 0.00 0.00 0.00 88 1013.3
20260504204704 51 343 3.0 9.0 0.00 0.00 0.00 88 1013.3
20260504203703 51 358 4.0 9.0 0.00 0.00 0.00 88 1013.3
20260504203204 51 337 2.0 8.0 0.00 0.00 0.00 88 1013.3
20260504202705 51 337 3.0 8.0 0.00 0.00 0.00 88 1013.3
20260504202203 51 355 4.0 8.0 0.00 0.00 0.00 88 1013.3
20260504201703 51 339 3.0 8.0 0.00 0.00 0.00 87 1013.3
20260504201204 51 8 4.0 9.0 0.00 0.00 0.00 87 1013.3
20260504200704 52 357 3.0 9.0 0.00 0.00 0.00 87 1013.3
20260504200203 52 344 3.0 7.0 0.00 0.00 0.00 87 1013.2
20260504194203 52 28 2.0 5.0 0.00 0.00 0.00 87 1013.1
20260504193703 52 353 3.0 8.0 0.00 0.00 0.00 87 1013.0
20260504193204 52 351 3.0 8.0 0.00 0.00 0.00 87 1012.9
20260504192704 52 22 3.0 10.0 0.00 0.00 0.00 87 1013.0
20260504192205 52 10 3.0 6.0 0.00 0.00 0.00 87 1012.9
20260504191704 52 358 4.0 10.0 0.00 0.00 0.00 87 1012.8
20260504191203 52 355 3.0 9.0 0.00 0.00 0.00 87 1012.9
20260504190704 53 345 4.0 9.0 0.00 0.00 0.00 87 1012.8
20260504185703 53 330 2.0 10.0 0.00 0.00 0.00 87 1012.9
20260504185204 53 354 4.0 10.0 0.00 0.00 0.00 87 1012.8
20260504184704 53 340 4.0 10.0 0.00 0.00 0.00 86 1012.8
20260504184204 53 15 3.0 13.0 0.00 0.00 0.00 86 1012.8
20260504183204 54 336 3.0 10.0 0.00 0.00 0.00 86 1012.7
20260504182704 54 353 5.0 10.0 0.00 0.00 0.00 86 1012.7
20260504182204 54 10 3.0 8.0 0.00 0.00 0.00 86 1012.7
20260504181704 54 8 5.0 10.0 0.00 0.00 0.00 86 1012.6
20260504181204 54 353 5.0 9.0 0.00 0.00 0.00 86 1012.5
20260504180704 54 339 5.0 13.0 0.00 0.00 0.00 86 1012.5
20260504180204 55 5 7.0 12.0 0.00 0.00 0.00 86 1012.5
20260504175704 55 11 5.0 12.0 0.00 0.00 0.00 86 1012.5
20260504175204 55 333 5.0 12.0 0.00 0.00 0.00 86 1012.5
20260504174704 56 346 8.0 14.0 0.00 0.00 0.00 85 1012.4
20260504174204 56 325 9.0 12.0 0.00 0.00 0.00 85 1012.4
20260504173705 57 346 6.0 12.0 0.00 0.00 0.00 85 1012.4
20260504172702 57 317 4.0 9.0 0.00 0.00 0.00 85 1012.4
20260504172202 58 332 7.0 13.0 0.00 0.00 0.00 85 1012.3
20260504171702 58 338 4.0 12.0 0.00 0.00 0.00 85 1012.3
20260504171203 58 329 4.0 10.0 0.00 0.00 0.00 84 1012.3
20260504170702 58 349 3.0 8.0 0.00 0.00 0.00 85 1012.3
20260504170202 58 336 5.0 10.0 0.00 0.00 0.00 85 1012.3
20260504160202 59 357 3.0 10.0 0.00 0.00 0.00 86 1012.3
20260504150702 61 322 4.0 9.0 0.00 0.02 0.00 84 1012.2
20260504150203 61 330 3.0 10.0 0.00 0.02 0.00 84 1012.2
20260504141203 62 53 5.0 8.0 0.00 0.04 0.00 83 1012.4
20260504140703 63 35 3.0 8.0 0.00 0.04 0.00 83 1012.4
20260504140203 63 8 3.0 5.0 0.00 0.04 0.00 83 1012.3
20260504130703 59 357 3.0 10.0 0.00 0.04 0.00 89 1012.6
20260504130203 59 352 4.0 9.0 0.00 0.04 0.00 88 1012.6
20260504120203 62 331 3.0 8.0 0.00 0.04 0.00 86 1012.5
20260504110703 61 350 2.0 3.0 0.00 0.04 0.00 88 1012.4
20260504110204 61 342 3.0 5.0 0.00 0.04 0.00 88 1012.6
20260504100204 58 39 3.0 5.0 0.00 0.04 0.00 94 1012.7
20260504081703 57 51 2.0 3.0 0.00 0.04 0.00 95 1012.2
20260504080702 57 56 1.0 3.0 0.00 0.04 0.00 95 1012.1
20260504070203 56 86 1.0 3.0 0.00 0.04 0.00 96 1011.6
20260504060203 56 133 2.0 3.0 0.00 0.04 0.00 96 1011.3
20260504050703 55 109 1.0 2.0 0.00 0.04 0.00 96 1010.9
20260504045702 55 141 1.0 2.0 0.00 0.04 0.00 96 1010.9
20260504045203 55 141 0.0 2.0 0.00 0.04 0.00 96 1010.9
20260504044703 55 141 1.0 2.0 0.00 0.04 0.00 96 1010.8
20260504044203 55 141 1.0 2.0 0.00 0.04 0.00 96 1010.7
20260504043703 55 141 1.0 2.0 0.00 0.04 0.00 96 1010.7
20260504043203 55 141 0.0 1.0 0.00 0.04 0.00 96 1010.7
20260504042203 55 141 0.0 2.0 0.00 0.04 0.00 95 1010.7
20260504041703 55 141 1.0 2.0 0.00 0.04 0.00 95 1010.7
20260504040703 54 127 2.0 3.0 0.00 0.04 0.00 95 1010.6
20260504040203 54 133 2.0 3.0 0.00 0.04 0.00 95 1010.7
20260504035703 54 127 1.0 2.0 0.00 0.04 0.00 96 1010.7
20260504034704 54 148 1.0 2.0 0.00 0.04 0.00 95 1010.6
20260504034203 54 227 1.0 2.0 0.00 0.04 0.00 95 1010.6
20260504033703 54 227 0.0 0.0 0.00 0.04 0.00 95 1010.6
20260504033203 54 227 0.0 1.0 0.00 0.04 0.00 95 1010.6
20260504032703 54 227 0.0 1.0 0.00 0.04 0.00 95 1010.7
20260504032203 54 227 1.0 2.0 0.00 0.04 0.00 95 1010.7
20260504031704 54 294 0.0 1.0 0.00 0.04 0.00 95 1010.7
20260504031203 54 294 0.0 0.0 0.00 0.04 0.00 95 1010.7
20260504030703 54 294 0.0 0.0 0.00 0.04 0.00 95 1010.8
20260504030204 54 294 0.0 0.0 0.00 0.04 0.00 95 1010.7
20260504025204 54 294 0.0 0.0 0.00 0.04 0.00 95 1010.6
20260504024703 54 294 0.0 0.0 0.00 0.04 0.00 95 1010.6
20260504024205 54 294 0.0 0.0 0.00 0.04 0.00 95 1010.5
20260504023204 54 294 0.0 0.0 0.00 0.04 0.00 95 1010.4
20260504022203 55 291 1.0 3.0 0.00 0.04 0.00 95 1010.3
20260504020203 55 296 2.0 3.0 0.00 0.04 0.00 95 1010.4
20260504015703 55 298 1.0 2.0 0.00 0.04 0.00 95 1010.4
20260504015203 55 288 3.0 3.0 0.00 0.04 0.00 95 1010.4
20260504014703 55 281 2.0 3.0 0.00 0.04 0.00 95 1010.4
20260504014204 55 294 2.0 3.0 0.00 0.04 0.00 95 1010.3
20260504013704 55 290 3.0 7.0 0.00 0.04 0.00 95 1010.3
20260504013204 55 293 2.0 6.0 0.00 0.04 0.00 95 1010.3
20260504012705 55 280 3.0 6.0 0.00 0.04 0.00 95 1010.3
20260504011204 55 274 3.0 7.0 0.00 0.04 0.00 95 1010.4
20260504010704 55 254 3.0 8.0 0.00 0.04 0.00 95 1010.3
20260504010204 55 269 5.0 9.0 0.00 0.04 0.00 95 1010.3
20260504005704 55 248 5.0 8.0 0.00 0.04 0.00 95 1010.3
20260504005204 56 260 3.0 7.0 0.00 0.04 0.00 95 1010.3
20260504004204 56 243 3.0 6.0 0.00 0.04 0.00 95 1010.3
20260504003204 56 291 2.0 3.0 0.00 0.04 0.00 95 1010.2
20260504002704 56 288 3.0 3.0 0.00 0.04 0.00 95 1010.2
20260504001204 56 285 3.0 3.0 0.00 0.04 0.00 95 1010.2
20260504000704 56 250 2.0 6.0 0.00 0.04 0.00 95 1010.2
20260503235703 56 279 3.0 6.0 0.00 0.04 0.00 95 1010.1
20260503235204 56 283 3.0 7.0 0.00 0.04 0.00 95 1010.1